Location: Bandys
(35.4750°N, 81.0830°W)
Time: 03:27:23
(UTC-04:00)

Daily predictions for brighter satellites

Satellite Brightness Start Highest point End
(mag) Time Altitude Azimuth Time Altitude Azimuth Time Altitude Azimuth
Cosmos 2219 Rocket 4.0 00:14:23 27° N 00:14:23 27° N 00:17:06 10° N
ATLAS 3B R/B 4.0 00:07:20 10° NW 00:11:07 30° WNW 00:11:07 30° WNW
Cosmos 2333 Rocket 4.2 00:32:48 24° N 00:32:48 24° N 00:35:15 10° N
Cosmos 2237 Rocket 4.4 00:57:08 21° N 00:57:08 21° N 00:59:10 10° N
CENTAUR R/B 3.7 00:58:37 10° NNW 01:04:37 50° N 01:04:37 50° N
SL-16 R/B 4.4 02:30:31 21° ENE 02:31:25 22° ENE 02:35:56 10° NNE
Cosmos 1943 Rocket 4.2 02:28:37 10° N 02:31:11 23° NNE 02:31:11 23° NNE
Resurs 1-4 Rocket 4.5 02:36:38 10° NE 02:38:22 16° ENE 02:38:22 16° ENE
Cosmos 2369 Rocket 4.3 02:39:53 10° NNW 02:41:42 21° NNW 02:41:42 21° NNW
CZ-3A R/B 4.4 02:38:03 10° NW 02:47:35 42° NNE 02:52:42 10° ESE
CZ-2D R/B 4.2 02:46:29 10° NE 02:48:55 20° ENE 02:48:55 20° ENE
CZ-3 Stage 3 4.5 02:57:19 60° WSW 03:01:07 77° S 04:40:50 10° ESE
ARIANE 5 R/B 4.3 03:09:01 10° NNE 03:12:11 28° ENE 03:12:11 28° ENE
ADEOS Rocket 4.0 03:18:33 10° N 03:21:45 36° N 03:21:45 36° N
COSMOS 2406 3.6 03:47:04 58° ENE 03:47:04 58° ENE 03:51:51 10° NNE
ADEOS 4.3 03:41:08 10° NNE 03:45:17 51° NE 03:45:17 51° NE
Cosmos 2285 Rocket 4.3 03:46:52 57° ESE 03:47:01 58° ESE 03:53:16 10° NNE
Cosmos 2098 Rocket 4.3 03:52:13 52° NNW 03:52:13 52° NNW 03:56:15 10° N
Cosmos 540 Rocket 4.5 03:58:15 38° NNW 03:58:15 38° NNW 04:01:39 10° N
MOS 1 Rocket 4.3 04:04:41 10° N 04:07:19 36° N 04:07:19 36° N
Cosmos 1300 4.3 04:12:33 33° ENE 04:12:33 33° ENE 04:15:15 10° NNE
SL-16 R/B 2.8 04:15:37 49° WNW 04:15:37 49° WNW 04:20:39 10° NNW
Cosmos 1125 Rocket 4.4 04:11:01 10° NNW 04:14:14 38° NW 04:14:14 38° NW
Cosmos 1943 Rocket 4.5 04:12:31 10° NW 04:12:39 11° NW 04:12:39 11° NW
Sich 1 3.7 04:13:31 10° N 04:17:45 51° E 04:17:45 51° E
Resurs 1-4 Rocket 2.9 04:15:26 10° N 04:19:26 39° NW 04:19:26 39° NW
Cosmos 2123 Rocket 4.0 04:15:03 10° NNW 04:20:53 58° W 04:20:53 58° W
CZ-2D R/B 4.3 04:18:23 10° NNE 04:21:16 46° NNE 04:21:16 46° NNE
Cosmos 1656 Rocket 4.0 04:19:40 10° NNW 04:24:03 50° WNW 04:24:03 50° WNW
Cosmos 1459 Rocket 4.5 04:25:34 27° SSE 04:28:51 56° E 04:34:47 10° NNE
Cosmos 1315 Rocket 3.4 04:25:00 10° N 04:28:33 57° NE 04:28:33 57° NE
CZ-2D R/B 3.0 04:26:04 10° N 04:30:15 34° NW 04:30:15 34° NW
Cosmos 1538 Rocket 4.2 04:30:39 54° SSE 04:31:45 70° ESE 04:37:06 10° NNE
Cosmos 2228 Rocket 4.0 04:31:13 36° SE 04:32:25 46° E 04:36:41 10° NNE
USA 229 DEB 3.7 04:31:09 10° NNW 04:38:23 82° WSW 04:45:43 10° SSE
USA 229 3.7 04:31:16 10° NNW 04:38:29 83° WSW 04:45:49 10° SSE
Cosmos 2082 Rocket 3.9 04:34:30 12° SSE 04:38:37 27° ESE 04:43:17 10° NE
Tiangong 2 2.8 04:46:42 28° ESE 04:46:42 28° ESE 04:48:45 10° ENE
Cosmos 1633 Rocket 2.9 04:41:50 10° N 04:46:13 88° W 04:46:49 66° S
Cosmos 292 Rocket 4.1 04:46:25 47° WNW 04:46:25 47° WNW 04:50:59 10° N
Cosmos 2061 Rocket 4.2 04:43:47 22° S 04:48:08 73° E 04:54:34 10° N
Lacrosse 5 4.5 04:47:39 10° NNW 04:51:21 20° NE 04:55:01 10° E
ARIANE 5 R/B 3.8 04:48:25 10° NNW 04:52:31 25° WNW 04:52:31 25° WNW
CZ-4B R/B 4.0 04:53:52 10° NNE 04:58:14 49° E 05:01:30 17° S
UNKNOWN OBJECT B 4.2 04:57:11 10° NNW 05:00:00 27° NW 05:00:00 27° NW
Cosmos 1726 3.8 05:03:54 21° NW 05:03:54 21° NW 05:05:48 10° NNW
Cosmos 1328 Rocket 3.5 05:05:17 49° WSW 05:06:03 57° W 05:10:19 10° N
SL-27 R/B 4.1 05:08:12 20° NW 05:08:12 20° NW 05:10:03 10° NNW
Cosmos 2016 Rocket 4.0 05:02:55 14° S 05:08:13 84° E 05:14:20 10° N
Meteor 1-27 4.4 05:04:26 13° S 05:09:35 72° E 05:15:11 10° NNE
ADEOS II 2.0 05:05:56 10° NNE 05:11:13 87° W 05:14:51 21° SSW
Cosmos 1892 3.7 05:08:21 10° N 05:12:03 46° E 05:15:46 10° SSE
USA 234 4.2 05:06:36 10° ENE 05:12:44 41° SE 05:18:19 12° SSW
Hubble Space Telescope 1.9 05:12:56 27° S 05:13:20 28° S 05:16:52 10° ESE
NOSS 3-1 (C) 4.2 05:05:31 10° NNW 05:13:20 85° ENE 05:21:52 10° SSE
OAO 2 Rocket 4.4 05:11:56 24° S 05:13:42 31° SSE 05:18:04 10° E
MOS 1-B 4.3 05:08:58 10° N 05:14:46 70° WNW 05:18:38 22° SSW
Shenzhou-11 Module 1.9 05:14:51 70° W 05:15:07 79° NNW 05:18:13 10° ENE
In-Cosmos 22 Rocket 4.0 05:13:09 10° NNW 05:18:30 68° W 05:23:44 10° S
PSLV R/B 3.6 05:14:45 10° NNE 05:19:06 79° ESE 05:22:30 16° S
BREEZE-M DEB (TANK) 1.8 05:20:14 49° SSW 05:20:14 49° SSW 05:23:30 10° SE
Cosmos 1725 Rocket 4.2 05:14:43 10° S 05:20:51 73° E 05:27:01 10° N
Cosmos 1802 Rocket 4.0 05:17:49 19° SSW 05:22:17 62° W 05:28:29 10° N
Cosmos 2100 Rocket 4.4 05:21:04 23° SW 05:24:41 46° W 05:30:48 10° N
Cosmos 1933 Rocket 3.5 05:23:36 10° NNW 05:28:02 69° W 05:32:26 10° S
Cosmos 773 Rocket 4.5 05:26:23 26° SW 05:28:56 44° WNW 05:33:59 10° N
COSMOS 2487 2.4 05:28:41 22° SSW 05:30:49 88° ESE 05:34:22 10° NNE
Abrixas 4.0 05:30:01 10° NW 05:32:25 31° NNE 05:34:49 10° E
OAO 1 4.5 05:29:34 20° W 05:33:29 87° S 05:39:01 10° E
Okean O Rocket 1.5 05:32:45 10° N 05:37:10 71° WNW 05:41:18 11° SSW
Cosmos 1833 Rocket 2.7 05:32:20 12° SSW 05:37:31 88° WNW 05:43:12 10° NNE
Cosmos 1151 Rocket 3.5 05:38:21 20° SW 05:40:54 40° W 05:44:57 10° N
Tsikada Rocket 4.1 05:39:04 10° N 05:45:25 87° E 05:51:48 10° S
Cosmos 1980 Rocket 4.1 05:49:45 10° N 05:54:48 34° ENE 05:59:50 10° SE
Cosmos 2278 3.7 05:52:53 10° NNW 05:58:30 67° WSW 06:04:04 10° S
EO 1 Del DPAF 4.2 05:56:54 10° SSE 06:00:37 53° ENE 06:04:23 10° N
Cosmos 482 Debris 4.4 06:00:00 10° NW 06:02:48 66° NE 06:07:34 10° SE
Cosmos 1455 2.9 06:00:30 10° SW 06:03:55 32° W 06:07:19 10° NNW
Cosmos 1697 Rocket 2.9 06:05:07 10° NNW 06:10:49 82° ENE 06:16:29 10° SSE
Timation 2 Rocket 4.0 06:10:37 10° SSW 06:16:34 88° ESE 06:22:42 10° NNE
PSLV R/B 3.9 06:16:56 10° WNW 06:20:07 54° NNE 06:23:20 10° E
SJ-6F 4.5 06:16:00 10° N 06:20:10 71° WNW 06:24:19 10° SSW
Cosmos 1869 3.5 06:16:43 10° SSW 06:20:33 50° W 06:24:27 10° N
Cosmos 2082 Rocket 2.9 06:17:25 10° SW 06:22:30 35° WNW 06:27:38 10° N
Tiangong 2 2.1 06:19:37 10° W 06:22:40 38° NNW 06:25:44 10° NE
ATLAS 2AS CENTAUR R/B 4.3 06:20:44 10° NNW 06:28:18 45° NE 06:35:19 10° ESE
